UAE501 VABB-OMDB

Flight info

Callsign UAE501
Flight time 2h 23m
Altitude 36000
Route RAXET2A SAKUN V2 SUGID N571 VUSET A454 PASOV B540 KUPMA/N0398F240 B540 MIVEK P574 IMPED
Aircraft A388/J-SADE2E3FGHIJ3J4J5M1RWXY/LB1D1

Departure

Time 2026-04-24 07:43
Airport Chhatrapati Shivaji Maharaj International Airport (VABB)

Arrival

Time 2026-04-24 10:06
Airport Dubai International Airport (OMDB)
Time Latitude Longitude Altitude Speed Heading
2026-04-24 06:55 19.09463 72.87574 38 ft 0 kts 28°
2026-04-24 07:33 19.09445 72.87560 36 ft 4 kts 52°
2026-04-24 07:34 19.09428 72.87539 34 ft 4 kts 33°
2026-04-24 07:34 19.09407 72.87526 35 ft 4 kts 52°
2026-04-24 07:34 19.09402 72.87503 33 ft 4 kts 112°
2026-04-24 07:34 19.09415 72.87479 33 ft 4 kts 129°
2026-04-24 07:35 19.09424 72.87469 35 ft 0 kts 128°
2026-04-24 07:38 19.09404 72.87495 38 ft 10 kts 128°
2026-04-24 07:38 19.09339 72.87579 38 ft 20 kts 131°
2026-04-24 07:38 19.09283 72.87646 38 ft 8 kts 141°
2026-04-24 07:38 19.09221 72.87671 38 ft 11 kts 180°
2026-04-24 07:39 19.09151 72.87692 38 ft 10 kts 128°
2026-04-24 07:39 19.09144 72.87760 38 ft 12 kts 96°
2026-04-24 07:39 19.09093 72.87810 38 ft 11 kts 151°
2026-04-24 07:39 19.09056 72.87884 37 ft 14 kts 86°
2026-04-24 07:40 19.09062 72.88004 37 ft 17 kts 91°
2026-04-24 07:40 19.09029 72.88047 37 ft 9 kts 170°
2026-04-24 07:40 19.09018 72.88049 37 ft 0 kts 173°
2026-04-24 07:41 19.09017 72.88049 37 ft 1 kts 173°
2026-04-24 07:41 19.08968 72.88054 35 ft 12 kts 177°
2026-04-24 07:41 19.08894 72.88045 35 ft 5 kts 240°
2026-04-24 07:41 19.08887 72.88002 35 ft 7 kts 273°
2026-04-24 07:42 19.08890 72.87905 35 ft 28 kts 272°
2026-04-24 07:42 19.08901 72.87583 35 ft 58 kts 272°
2026-04-24 07:42 19.08873 72.86947 37 ft 119 kts 269°
2026-04-24 07:42 19.08862 72.85906 124 ft 155 kts 269°
2026-04-24 07:43 19.08815 72.84747 587 ft 161 kts 267°
2026-04-24 07:43 19.08737 72.83523 1004 ft 171 kts 269°
2026-04-24 07:43 19.08711 72.82240 1504 ft 175 kts 274°
2026-04-24 07:43 19.08737 72.80912 1879 ft 187 kts 275°
2026-04-24 07:44 19.08759 72.79475 2022 ft 211 kts 274°
2026-04-24 07:44 19.08759 72.77854 2352 ft 230 kts 273°
2026-04-24 07:44 19.08739 72.76066 2629 ft 254 kts 272°
2026-04-24 07:44 19.08720 72.74124 3015 ft 271 kts 275°
2026-04-24 07:45 19.08884 72.72130 3668 ft 273 kts 280°
2026-04-24 07:45 19.09150 72.70119 4349 ft 277 kts 281°
2026-04-24 07:45 19.09421 72.68090 5046 ft 280 kts 280°
2026-04-24 07:45 19.09670 72.66071 5783 ft 282 kts 279°
2026-04-24 07:46 19.09907 72.63999 6520 ft 285 kts 278°
2026-04-24 07:46 19.10137 72.61904 7200 ft 288 kts 278°
2026-04-24 07:46 19.10366 72.59776 7851 ft 293 kts 277°
2026-04-24 07:46 19.10597 72.57624 8579 ft 296 kts 277°
2026-04-24 07:47 19.10830 72.55451 9291 ft 299 kts 276°
2026-04-24 07:47 19.11065 72.53251 9999 ft 302 kts 276°
2026-04-24 07:47 19.11307 72.50980 10292 ft 321 kts 276°
2026-04-24 07:47 19.11564 72.48559 10473 ft 341 kts 276°
2026-04-24 07:48 19.11835 72.46014 10818 ft 353 kts 276°
2026-04-24 07:48 19.12108 72.43461 11466 ft 355 kts 276°
2026-04-24 07:48 19.12386 72.40852 12108 ft 358 kts 276°
2026-04-24 07:48 19.12665 72.38230 12779 ft 361 kts 275°
2026-04-24 07:49 19.12948 72.35575 13433 ft 364 kts 275°
2026-04-24 07:49 19.13233 72.32889 14023 ft 368 kts 275°
2026-04-24 07:49 19.13518 72.30187 14563 ft 372 kts 276°
2026-04-24 07:49 19.13807 72.27446 15111 ft 376 kts 276°
2026-04-24 07:50 19.14095 72.24715 15635 ft 381 kts 276°
2026-04-24 07:50 19.14390 72.21915 16172 ft 385 kts 277°
2026-04-24 07:50 19.14689 72.19083 16734 ft 388 kts 277°
2026-04-24 07:50 19.14989 72.16236 17280 ft 392 kts 277°
2026-04-24 07:51 19.15293 72.13350 17831 ft 395 kts 278°
2026-04-24 07:51 19.15807 72.10488 18322 ft 397 kts 287°
2026-04-24 07:51 19.16713 72.07768 18789 ft 397 kts 295°
2026-04-24 07:51 19.17980 72.05156 19261 ft 398 kts 300°
2026-04-24 07:52 19.19309 72.02562 19704 ft 401 kts 300°
2026-04-24 07:52 19.20615 71.99973 20160 ft 404 kts 300°
2026-04-24 07:52 19.21940 71.97334 20616 ft 407 kts 300°
2026-04-24 07:52 19.23273 71.94679 21061 ft 409 kts 300°
2026-04-24 07:53 19.24622 71.91992 21511 ft 412 kts 300°
2026-04-24 07:53 19.25954 71.89342 21957 ft 414 kts 300°
2026-04-24 07:53 19.27320 71.86624 22408 ft 417 kts 300°
2026-04-24 07:53 19.28686 71.83903 22860 ft 419 kts 300°
2026-04-24 07:54 19.30061 71.81165 23300 ft 422 kts 300°
2026-04-24 07:54 19.31446 71.78406 23699 ft 424 kts 300°
2026-04-24 07:54 19.32830 71.75646 24107 ft 426 kts 300°
2026-04-24 07:54 19.34225 71.72864 24502 ft 427 kts 300°
2026-04-24 07:55 19.35618 71.70086 24895 ft 429 kts 300°
2026-04-24 07:55 19.37019 71.67289 25286 ft 431 kts 300°
2026-04-24 07:55 19.38413 71.64504 25714 ft 433 kts 299°
2026-04-24 07:55 19.39826 71.61680 26141 ft 435 kts 299°
2026-04-24 07:56 19.41252 71.58831 26611 ft 437 kts 299°
2026-04-24 07:56 19.42677 71.55979 27088 ft 439 kts 299°
2026-04-24 07:56 19.44109 71.53113 27565 ft 441 kts 298°
2026-04-24 07:56 19.45551 71.50227 28062 ft 444 kts 298°
2026-04-24 07:57 19.46980 71.47365 28575 ft 446 kts 298°
2026-04-24 07:57 19.48434 71.44450 29064 ft 448 kts 298°
2026-04-24 07:57 19.49896 71.41519 29563 ft 451 kts 298°
2026-04-24 07:57 19.51369 71.38563 30022 ft 454 kts 297°
2026-04-24 07:58 19.52850 71.35591 30431 ft 457 kts 297°
2026-04-24 07:58 19.54343 71.32591 30864 ft 459 kts 297°
2026-04-24 07:58 19.55817 71.29629 31296 ft 461 kts 297°
2026-04-24 07:58 19.57316 71.26617 31756 ft 463 kts 297°
2026-04-24 07:59 19.58824 71.23583 32191 ft 465 kts 297°
2026-04-24 07:59 19.60304 71.20522 32612 ft 466 kts 294°
2026-04-24 07:59 19.61515 71.17328 33046 ft 467 kts 287°
2026-04-24 07:59 19.62519 71.14044 33477 ft 469 kts 287°
2026-04-24 08:00 19.63545 71.10744 33882 ft 472 kts 287°
2026-04-24 08:00 19.64574 71.07461 34223 ft 474 kts 287°
2026-04-24 08:00 19.65621 71.04124 34539 ft 477 kts 287°
2026-04-24 08:00 19.66668 71.00779 34937 ft 478 kts 287°
2026-04-24 08:01 19.67718 70.97418 35376 ft 478 kts 287°
2026-04-24 08:01 19.68765 70.94063 35780 ft 480 kts 287°
2026-04-24 08:01 19.70860 70.87339 35853 ft 480 kts 287°
2026-04-24 08:02 19.72962 70.80577 35853 ft 482 kts 287°
2026-04-24 08:02 19.75096 70.73701 35856 ft 500 kts 287°
2026-04-24 08:03 19.77285 70.66644 35850 ft 505 kts 287°
2026-04-24 08:03 19.79489 70.59526 35857 ft 506 kts 287°
2026-04-24 08:04 19.81688 70.52413 35861 ft 507 kts 287°
2026-04-24 08:04 19.83878 70.45315 35856 ft 507 kts 287°
2026-04-24 08:05 19.85724 70.38088 35859 ft 507 kts 276°
2026-04-24 08:05 19.85435 70.30635 35852 ft 507 kts 258°
2026-04-24 08:06 19.83311 70.23521 35858 ft 508 kts 252°
2026-04-24 08:06 19.81061 70.16390 35852 ft 509 kts 252°
2026-04-24 08:07 19.78818 70.09288 35854 ft 509 kts 252°
2026-04-24 08:07 19.76554 70.02147 35855 ft 509 kts 252°
2026-04-24 08:08 19.74289 69.95014 35854 ft 509 kts 252°
2026-04-24 08:09 19.70888 69.84327 35855 ft 510 kts 252°
2026-04-24 08:09 19.68624 69.77229 35854 ft 510 kts 252°
2026-04-24 08:10 19.66343 69.70084 35855 ft 510 kts 252°
2026-04-24 08:10 19.64060 69.62947 35852 ft 510 kts 252°
2026-04-24 08:11 19.61786 69.55846 35851 ft 510 kts 252°
2026-04-24 08:11 19.59494 69.48701 35851 ft 510 kts 252°
2026-04-24 08:12 19.57281 69.41540 35851 ft 510 kts 257°
2026-04-24 08:12 19.56767 69.37875 35852 ft 510 kts 268°
2026-04-24 08:12 19.56875 69.34124 35852 ft 510 kts 277°
2026-04-24 08:13 19.58920 69.26964 35853 ft 509 kts 297°
2026-04-24 08:13 19.62167 69.20279 35852 ft 510 kts 297°
2026-04-24 08:14 19.65394 69.13555 35852 ft 510 kts 297°
2026-04-24 08:14 19.68595 69.06880 35850 ft 510 kts 297°
2026-04-24 08:15 19.71813 69.00165 35854 ft 510 kts 297°
2026-04-24 08:15 19.75034 68.93438 35852 ft 510 kts 297°
2026-04-24 08:16 19.77705 68.87851 35850 ft 511 kts 297°
2026-04-24 08:16 19.80911 68.81140 35857 ft 511 kts 297°
2026-04-24 08:17 19.84128 68.74397 35858 ft 512 kts 297°
2026-04-24 08:17 19.87347 68.67643 35858 ft 512 kts 297°
2026-04-24 08:18 19.90565 68.60883 35861 ft 513 kts 297°
2026-04-24 08:18 19.93768 68.54144 35858 ft 513 kts 297°
2026-04-24 08:19 19.96996 68.47348 35860 ft 514 kts 297°
2026-04-24 08:19 20.00198 68.40596 35861 ft 514 kts 298°
2026-04-24 08:20 20.03423 68.33788 35861 ft 515 kts 298°
2026-04-24 08:20 20.06647 68.26975 35859 ft 515 kts 298°
2026-04-24 08:21 20.09848 68.20201 35860 ft 515 kts 298°
2026-04-24 08:21 20.13067 68.13379 35862 ft 515 kts 298°
2026-04-24 08:22 20.16280 68.06564 35862 ft 514 kts 298°
2026-04-24 08:22 20.19475 67.99777 35864 ft 514 kts 298°
2026-04-24 08:23 20.22684 67.92953 35862 ft 514 kts 298°
2026-04-24 08:23 20.25869 67.86172 35862 ft 514 kts 298°
2026-04-24 08:24 20.29068 67.79353 35862 ft 514 kts 298°
2026-04-24 08:24 20.32268 67.72521 35860 ft 514 kts 298°
2026-04-24 08:25 20.35438 67.65746 35860 ft 513 kts 298°
2026-04-24 08:25 20.38625 67.58927 35862 ft 513 kts 298°
2026-04-24 08:26 20.41805 67.52115 35860 ft 513 kts 298°
2026-04-24 08:26 20.44981 67.45301 35862 ft 512 kts 298°
2026-04-24 08:27 20.48152 67.38491 35862 ft 512 kts 298°
2026-04-24 08:27 20.51304 67.31713 35865 ft 512 kts 298°
2026-04-24 08:28 20.54463 67.24911 35862 ft 511 kts 298°
2026-04-24 08:28 20.57601 67.18146 35861 ft 511 kts 298°
2026-04-24 08:29 20.60760 67.11327 35861 ft 511 kts 298°
2026-04-24 08:29 20.63908 67.04524 35867 ft 511 kts 298°
2026-04-24 08:30 20.67055 66.97714 35863 ft 511 kts 298°
2026-04-24 08:30 20.70181 66.90940 35864 ft 510 kts 298°
2026-04-24 08:31 20.73315 66.84141 35865 ft 510 kts 298°
2026-04-24 08:31 20.76447 66.77337 35866 ft 509 kts 298°
2026-04-24 08:32 20.79555 66.70577 35866 ft 510 kts 298°
2026-04-24 08:32 20.82680 66.63772 35865 ft 509 kts 298°
2026-04-24 08:33 20.85800 66.56968 35862 ft 509 kts 298°
2026-04-24 08:33 20.88917 66.50164 35866 ft 509 kts 298°
2026-04-24 08:34 20.92004 66.43415 35861 ft 508 kts 298°
2026-04-24 08:34 20.95120 66.36593 35862 ft 508 kts 298°
2026-04-24 08:35 20.98209 66.29823 35860 ft 508 kts 297°
2026-04-24 08:35 21.01311 66.23016 35863 ft 508 kts 297°
2026-04-24 08:36 21.04406 66.16216 35865 ft 508 kts 297°
2026-04-24 08:36 21.07485 66.09443 35866 ft 508 kts 297°
2026-04-24 08:37 21.10570 66.02652 35865 ft 507 kts 297°
2026-04-24 08:37 21.13691 65.95853 35864 ft 507 kts 298°
2026-04-24 08:38 21.16885 65.89115 35865 ft 507 kts 298°
2026-04-24 08:38 21.20080 65.82362 35864 ft 507 kts 298°
2026-04-24 08:39 21.23233 65.75663 35868 ft 507 kts 298°
2026-04-24 08:39 21.26415 65.68886 35866 ft 507 kts 298°
2026-04-24 08:40 21.29585 65.62128 35869 ft 507 kts 298°
2026-04-24 08:40 21.32739 65.55395 35863 ft 507 kts 298°
2026-04-24 08:41 21.35911 65.48615 35866 ft 506 kts 298°
2026-04-24 08:41 21.39050 65.41896 35868 ft 507 kts 298°
2026-04-24 08:42 21.42214 65.35116 35864 ft 507 kts 298°
2026-04-24 08:42 21.45346 65.28393 35866 ft 506 kts 298°
2026-04-24 08:43 21.48499 65.21619 35865 ft 506 kts 298°
2026-04-24 08:43 21.51644 65.14851 35865 ft 506 kts 298°
2026-04-24 08:44 21.54790 65.08074 35872 ft 506 kts 298°
2026-04-24 08:44 21.57913 65.01337 35867 ft 506 kts 298°
2026-04-24 08:45 21.61053 64.94555 35867 ft 505 kts 298°
2026-04-24 08:45 21.64182 64.87787 35865 ft 506 kts 298°
2026-04-24 08:46 21.67318 64.80997 35868 ft 506 kts 298°
2026-04-24 08:46 21.70423 64.74265 35870 ft 506 kts 298°
2026-04-24 08:47 21.73551 64.67473 35869 ft 506 kts 298°
2026-04-24 08:47 21.76679 64.60672 35869 ft 506 kts 298°
2026-04-24 08:48 21.79780 64.53922 35870 ft 506 kts 298°
2026-04-24 08:48 21.82899 64.47123 35867 ft 506 kts 298°
2026-04-24 08:49 21.86017 64.40316 35861 ft 506 kts 298°
2026-04-24 08:49 21.89114 64.33548 35866 ft 506 kts 298°
2026-04-24 08:50 21.92224 64.26741 35865 ft 506 kts 298°
2026-04-24 08:50 21.95334 64.19925 35867 ft 506 kts 298°
2026-04-24 08:51 21.98439 64.13111 35866 ft 506 kts 298°
2026-04-24 08:51 22.01527 64.06326 35866 ft 506 kts 298°
2026-04-24 08:52 22.04624 63.99511 35864 ft 506 kts 298°
2026-04-24 08:52 22.07710 63.92713 35868 ft 506 kts 298°
2026-04-24 08:53 22.10806 63.85882 35864 ft 506 kts 298°
2026-04-24 08:53 22.13878 63.79096 35863 ft 506 kts 297°
2026-04-24 08:54 22.16966 63.72263 35867 ft 506 kts 297°
2026-04-24 08:54 22.20053 63.65425 35864 ft 506 kts 297°
2026-04-24 08:55 22.23128 63.58604 35862 ft 506 kts 297°
2026-04-24 08:55 22.26184 63.51816 35865 ft 505 kts 297°
2026-04-24 08:56 22.29261 63.44970 35860 ft 506 kts 297°
2026-04-24 08:56 22.32338 63.38117 35857 ft 505 kts 297°
2026-04-24 08:57 22.35380 63.31331 35858 ft 505 kts 297°
2026-04-24 08:57 22.38442 63.24492 35856 ft 505 kts 297°
2026-04-24 08:58 22.41486 63.17688 35857 ft 505 kts 297°
2026-04-24 08:58 22.44503 63.10838 35858 ft 505 kts 295°
2026-04-24 08:59 22.47226 63.03804 35860 ft 505 kts 295°
2026-04-24 08:59 22.49952 62.96866 35855 ft 505 kts 295°
2026-04-24 09:00 22.52690 62.89866 35854 ft 504 kts 295°
2026-04-24 09:00 22.55417 62.82867 35857 ft 504 kts 294°
2026-04-24 09:01 22.58121 62.75915 35856 ft 504 kts 294°
2026-04-24 09:01 22.60838 62.68917 35854 ft 503 kts 294°
2026-04-24 09:02 22.63548 62.61928 35852 ft 503 kts 294°
2026-04-24 09:02 22.66259 62.54925 35853 ft 503 kts 294°
2026-04-24 09:03 22.68951 62.47963 35852 ft 503 kts 294°
2026-04-24 09:03 22.71655 62.40958 35847 ft 502 kts 294°
2026-04-24 09:04 22.74334 62.34007 35842 ft 502 kts 294°
2026-04-24 09:04 22.77023 62.27020 35847 ft 501 kts 294°
2026-04-24 09:05 22.79692 62.20072 35844 ft 501 kts 294°
2026-04-24 09:05 22.82369 62.13097 35847 ft 501 kts 294°
2026-04-24 09:06 22.85045 62.06110 35844 ft 500 kts 294°
2026-04-24 09:06 22.87696 61.99179 35837 ft 499 kts 294°
2026-04-24 09:07 22.90362 61.92200 35843 ft 499 kts 294°
2026-04-24 09:07 22.93895 61.82930 35854 ft 499 kts 294°
2026-04-24 09:08 22.96548 61.75961 35846 ft 499 kts 294°
2026-04-24 09:08 22.99193 61.69000 35837 ft 499 kts 294°
2026-04-24 09:09 23.01820 61.62074 35836 ft 498 kts 294°
2026-04-24 09:09 23.04463 61.55097 35838 ft 498 kts 294°
2026-04-24 09:10 23.07086 61.48162 35839 ft 498 kts 294°
2026-04-24 09:10 23.09721 61.41183 35840 ft 498 kts 294°
2026-04-24 09:11 23.12355 61.34198 35836 ft 499 kts 294°
2026-04-24 09:11 23.14966 61.27262 35854 ft 499 kts 294°
2026-04-24 09:12 23.17591 61.20279 35851 ft 499 kts 294°
2026-04-24 09:12 23.20212 61.13293 35849 ft 498 kts 294°
2026-04-24 09:13 23.22815 61.06346 35837 ft 498 kts 294°
2026-04-24 09:13 23.25425 60.99370 35829 ft 498 kts 294°
2026-04-24 09:14 23.28036 60.92379 35834 ft 497 kts 294°
2026-04-24 09:14 23.30623 60.85443 35834 ft 497 kts 293°
2026-04-24 09:15 23.33219 60.78472 35836 ft 496 kts 293°
2026-04-24 09:15 23.35810 60.71502 35836 ft 496 kts 293°
2026-04-24 09:16 23.38394 60.64548 35836 ft 496 kts 293°
2026-04-24 09:16 23.40955 60.57573 35835 ft 495 kts 293°
2026-04-24 09:17 23.43487 60.50635 35839 ft 495 kts 293°
2026-04-24 09:17 23.46030 60.43672 35843 ft 495 kts 293°
2026-04-24 09:18 23.48561 60.36733 35837 ft 494 kts 293°
2026-04-24 09:18 23.51092 60.29784 35835 ft 494 kts 293°
2026-04-24 09:19 23.53630 60.22804 35838 ft 493 kts 293°
2026-04-24 09:19 23.56161 60.15833 35831 ft 493 kts 293°
2026-04-24 09:20 23.59091 60.07747 35832 ft 492 kts 293°
2026-04-24 09:20 23.61186 60.01959 35833 ft 492 kts 293°
2026-04-24 09:21 23.63684 59.95045 35833 ft 492 kts 293°
2026-04-24 09:21 23.66192 59.88091 35830 ft 491 kts 293°
2026-04-24 09:22 23.68692 59.81150 35830 ft 490 kts 293°
2026-04-24 09:22 23.71181 59.74227 35836 ft 489 kts 292°
2026-04-24 09:23 23.73651 59.67346 35839 ft 489 kts 292°
2026-04-24 09:23 23.76130 59.60430 35828 ft 488 kts 292°
2026-04-24 09:24 23.78602 59.53519 35829 ft 487 kts 292°
2026-04-24 09:24 23.81053 59.46659 35828 ft 487 kts 292°
2026-04-24 09:25 23.83511 59.39766 35828 ft 486 kts 292°
2026-04-24 09:25 23.85968 59.32867 35827 ft 486 kts 292°
2026-04-24 09:26 23.88413 59.25987 35827 ft 485 kts 292°
2026-04-24 09:26 23.90839 59.19152 35830 ft 485 kts 292°
2026-04-24 09:27 23.93272 59.12278 35825 ft 484 kts 292°
2026-04-24 09:27 23.95514 59.05326 35832 ft 484 kts 290°
2026-04-24 09:28 23.97695 58.98409 35829 ft 484 kts 290°
2026-04-24 09:28 23.99911 58.91461 35824 ft 483 kts 290°
2026-04-24 09:29 24.02135 58.84507 35825 ft 483 kts 290°
2026-04-24 09:29 24.04349 58.77575 35825 ft 483 kts 290°
2026-04-24 09:30 24.06549 58.70673 35833 ft 483 kts 290°
2026-04-24 09:30 24.08761 58.63721 35826 ft 482 kts 290°
2026-04-24 09:31 24.10952 58.56822 35823 ft 482 kts 290°
2026-04-24 09:31 24.13153 58.49881 35830 ft 482 kts 290°
2026-04-24 09:32 24.15350 58.42937 35828 ft 481 kts 290°
2026-04-24 09:32 24.17527 58.36047 35824 ft 481 kts 290°
2026-04-24 09:33 24.19716 58.29108 35830 ft 481 kts 290°
2026-04-24 09:33 24.21896 58.22182 35824 ft 480 kts 290°
2026-04-24 09:34 24.24078 58.15239 35824 ft 480 kts 290°
2026-04-24 09:34 24.26237 58.08355 35831 ft 480 kts 290°
2026-04-24 09:35 24.28408 58.01425 35825 ft 480 kts 290°
2026-04-24 09:35 24.30572 57.94500 35829 ft 480 kts 290°
2026-04-24 09:36 24.32736 57.87563 35828 ft 480 kts 290°
2026-04-24 09:36 24.34896 57.80631 35825 ft 480 kts 290°
2026-04-24 09:37 24.37039 57.73737 35828 ft 479 kts 290°
2026-04-24 09:37 24.39193 57.66795 35828 ft 479 kts 290°
2026-04-24 09:38 24.41327 57.59907 35826 ft 479 kts 290°
2026-04-24 09:38 24.43472 57.52971 35828 ft 479 kts 289°
2026-04-24 09:39 24.45611 57.46042 35827 ft 479 kts 289°
2026-04-24 09:39 24.47728 57.39169 35832 ft 479 kts 289°
2026-04-24 09:40 24.49859 57.32239 35829 ft 478 kts 289°
2026-04-24 09:40 24.51971 57.25357 35561 ft 467 kts 289°
2026-04-24 09:41 24.53008 57.21976 34757 ft 467 kts 289°
2026-04-24 09:41 24.54050 57.18575 33655 ft 472 kts 289°
2026-04-24 09:41 24.55094 57.15165 32438 ft 479 kts 289°
2026-04-24 09:41 24.56153 57.11704 31621 ft 476 kts 289°
2026-04-24 09:42 24.57203 57.08262 30904 ft 472 kts 289°
2026-04-24 09:42 24.58244 57.04853 30158 ft 469 kts 289°
2026-04-24 09:42 24.59280 57.01452 29369 ft 466 kts 289°
2026-04-24 09:42 24.60306 56.98085 28481 ft 461 kts 288°
2026-04-24 09:43 24.61302 56.94815 27616 ft 454 kts 288°
2026-04-24 09:43 24.62299 56.91538 26724 ft 448 kts 288°
2026-04-24 09:43 24.63279 56.88312 25852 ft 442 kts 288°
2026-04-24 09:43 24.64325 56.85149 24905 ft 438 kts 293°
2026-04-24 09:44 24.65679 56.82166 24047 ft 434 kts 299°
2026-04-24 09:44 24.67250 56.79351 23120 ft 430 kts 300°
2026-04-24 09:44 24.68782 56.76598 22165 ft 424 kts 300°
2026-04-24 09:44 24.70302 56.73840 21263 ft 418 kts 300°
2026-04-24 09:45 24.71799 56.71118 20370 ft 413 kts 300°
2026-04-24 09:45 24.73276 56.68433 19506 ft 408 kts 300°
2026-04-24 09:45 24.74737 56.65777 18669 ft 403 kts 300°
2026-04-24 09:45 24.76180 56.63157 17805 ft 398 kts 300°
2026-04-24 09:46 24.77608 56.60561 16868 ft 394 kts 300°
2026-04-24 09:46 24.79021 56.57992 15987 ft 389 kts 300°
2026-04-24 09:46 24.80398 56.55488 15118 ft 385 kts 300°
2026-04-24 09:46 24.81782 56.52970 14271 ft 381 kts 300°
2026-04-24 09:47 24.83147 56.50486 13420 ft 377 kts 300°
2026-04-24 09:47 24.84499 56.48023 12670 ft 373 kts 300°
2026-04-24 09:47 24.85827 56.45604 12202 ft 364 kts 300°
2026-04-24 09:47 24.87108 56.43269 11710 ft 357 kts 299°
2026-04-24 09:48 24.88099 56.40793 11223 ft 349 kts 284°
2026-04-24 09:48 24.88460 56.38180 10740 ft 342 kts 270°
2026-04-24 09:48 24.88318 56.35613 10546 ft 328 kts 265°
2026-04-24 09:48 24.88171 56.33161 10416 ft 313 kts 266°
2026-04-24 09:49 24.88050 56.30813 10312 ft 300 kts 266°
2026-04-24 09:49 24.87939 56.28593 10203 ft 288 kts 266°
2026-04-24 09:49 24.87918 56.26392 9840 ft 286 kts 275°
2026-04-24 09:49 24.88409 56.24282 9553 ft 284 kts 291°
2026-04-24 09:50 24.89353 56.22379 9257 ft 280 kts 298°
2026-04-24 09:50 24.90326 56.20538 8972 ft 277 kts 297°
2026-04-24 09:50 24.91258 56.18723 8686 ft 272 kts 297°
2026-04-24 09:50 24.92179 56.16920 8386 ft 268 kts 297°
2026-04-24 09:51 24.93089 56.15138 8110 ft 265 kts 297°
2026-04-24 09:51 24.93994 56.13376 7836 ft 263 kts 297°
2026-04-24 09:51 24.94890 56.11626 7562 ft 261 kts 297°
2026-04-24 09:51 24.95768 56.09913 7470 ft 252 kts 297°
2026-04-24 09:52 24.96618 56.08259 7368 ft 243 kts 297°
2026-04-24 09:52 24.97280 56.06602 7264 ft 235 kts 285°
2026-04-24 09:52 24.97584 56.04821 7024 ft 238 kts 273°
2026-04-24 09:52 24.97725 56.03007 6783 ft 237 kts 274°
2026-04-24 09:53 24.97889 56.01217 6552 ft 237 kts 274°
2026-04-24 09:53 24.98064 55.99407 6321 ft 237 kts 274°
2026-04-24 09:53 24.98242 55.97584 6067 ft 239 kts 274°
2026-04-24 09:53 24.98420 55.95762 5823 ft 238 kts 275°
2026-04-24 09:54 24.98597 55.93946 5609 ft 238 kts 275°
2026-04-24 09:54 24.98774 55.92133 5369 ft 237 kts 275°
2026-04-24 09:54 24.98948 55.90345 5133 ft 237 kts 275°
2026-04-24 09:54 24.99123 55.88543 4901 ft 237 kts 275°
2026-04-24 09:55 24.99296 55.86734 4657 ft 236 kts 276°
2026-04-24 09:55 24.99468 55.84938 4408 ft 236 kts 276°
2026-04-24 09:55 24.99661 55.83145 4159 ft 235 kts 282°
2026-04-24 09:55 24.99962 55.82001 4012 ft 233 kts 292°
2026-04-24 09:56 25.00742 55.80449 3781 ft 231 kts 304°
2026-04-24 09:56 25.01617 55.78958 3544 ft 231 kts 303°
2026-04-24 09:56 25.02299 55.77744 3347 ft 231 kts 303°
2026-04-24 09:57 25.03398 55.75768 3022 ft 225 kts 302°
2026-04-24 09:57 25.03948 55.74779 2842 ft 220 kts 303°
2026-04-24 09:57 25.04739 55.73368 2648 ft 215 kts 304°
2026-04-24 09:57 25.05553 55.71999 2409 ft 211 kts 305°
2026-04-24 09:58 25.06342 55.70643 2188 ft 212 kts 304°
2026-04-24 09:58 25.07114 55.69258 2011 ft 218 kts 304°
2026-04-24 09:58 25.07896 55.67833 2011 ft 211 kts 303°
2026-04-24 09:58 25.08636 55.66495 2001 ft 197 kts 303°
2026-04-24 09:59 25.09319 55.65260 2016 ft 181 kts 304°
2026-04-24 09:59 25.09947 55.64142 2011 ft 166 kts 304°
2026-04-24 09:59 25.10540 55.63069 2008 ft 160 kts 304°
2026-04-24 09:59 25.11108 55.62036 2009 ft 153 kts 304°
2026-04-24 10:00 25.11643 55.61067 2011 ft 143 kts 304°
2026-04-24 10:00 25.12160 55.60137 2010 ft 143 kts 305°
2026-04-24 10:00 25.12685 55.59192 2005 ft 144 kts 306°
2026-04-24 10:00 25.13218 55.58245 2008 ft 145 kts 305°
2026-04-24 10:01 25.13743 55.57291 2011 ft 146 kts 305°
2026-04-24 10:01 25.14263 55.56345 2007 ft 145 kts 305°
2026-04-24 10:01 25.14789 55.55391 2006 ft 146 kts 306°
2026-04-24 10:01 25.15324 55.54428 2010 ft 148 kts 306°
2026-04-24 10:02 25.15866 55.53456 2004 ft 148 kts 306°
2026-04-24 10:02 25.16405 55.52487 2015 ft 149 kts 306°
2026-04-24 10:02 25.16932 55.51519 2001 ft 144 kts 305°
2026-04-24 10:02 25.17445 55.50592 1989 ft 140 kts 305°
2026-04-24 10:03 25.17950 55.49680 1984 ft 140 kts 306°
2026-04-24 10:03 25.18469 55.48756 1877 ft 142 kts 304°
2026-04-24 10:03 25.18970 55.47835 1693 ft 142 kts 305°
2026-04-24 10:03 25.19498 55.46894 1518 ft 145 kts 307°
2026-04-24 10:04 25.20022 55.45937 1328 ft 146 kts 305°
2026-04-24 10:04 25.20550 55.44977 1160 ft 144 kts 307°
2026-04-24 10:04 25.21064 55.44039 962 ft 142 kts 307°
2026-04-24 10:04 25.21540 55.43083 818 ft 139 kts 308°
2026-04-24 10:05 25.22058 55.42203 642 ft 138 kts 309°
2026-04-24 10:05 25.22588 55.41304 419 ft 144 kts 307°
2026-04-24 10:05 25.23121 55.40357 257 ft 142 kts 305°
2026-04-24 10:05 25.23618 55.39441 62 ft 135 kts 303°
2026-04-24 10:06 25.24060 55.38632 28 ft 104 kts 306°
2026-04-24 10:06 25.24495 55.37870 27 ft 35 kts 301°
2026-04-24 10:06 25.24589 55.37684 27 ft 22 kts 291°
2026-04-24 10:07 25.24618 55.37529 27 ft 20 kts 273°
2026-04-24 10:07 25.24623 55.37382 27 ft 19 kts 271°
2026-04-24 10:07 25.24645 55.37245 27 ft 16 kts 295°
2026-04-24 10:07 25.24700 55.37138 27 ft 16 kts 301°
2026-04-24 10:08 25.24740 55.37065 27 ft 5 kts 301°
2026-04-24 10:08 25.24765 55.37020 27 ft 8 kts 301°
2026-04-24 10:08 25.24774 55.36970 27 ft 7 kts 253°
2026-04-24 10:08 25.24744 55.36941 27 ft 8 kts 209°
2026-04-24 10:09 25.24681 55.36900 27 ft 13 kts 211°
2026-04-24 10:09 25.24613 55.36854 27 ft 4 kts 211°
2026-04-24 10:09 25.24575 55.36828 27 ft 9 kts 210°
2026-04-24 10:09 25.24552 55.36826 26 ft 1 kts 133°
2026-04-24 10:10 25.24544 55.36837 27 ft 4 kts 124°
2026-04-24 10:10 25.24517 55.36883 27 ft 8 kts 123°
2026-04-24 10:10 25.24508 55.36899 27 ft 5 kts 121°
2026-04-24 10:10 25.24507 55.36902 27 ft 0 kts 121°